Weather observations for the past three days for
Camarillo, Camarillo Airport
Metric (Imperial)
Date Time (pdt) Wind (kph) Vis. (km) Weather Sky Cond. Temperature (ºC) Relative Humidity Wind Chill (°C) Heat Index (°C) Pressure Precipitation (cm)
Air Dwpt 6 hour altimeter (cm) sea level (mb) 1 hr 3 hr 6 hr
Max. Min.
05 03:55 Calm 16.09 A Few Clouds FEW016 12.8 10.6 87% 76.02 1014.3
05 02:55 Calm 16.09 A Few Clouds FEW080 13.9 11.1 83% 76.02 1014.3
05 01:55 SE 6 16.09 Overcast FEW018 OVC080 14.4 11.1 81% 76.07 1014.9
05 00:55 SE 6 16.09 Overcast FEW017 FEW065 OVC080 14.4 10.6 78% 76.1 1015.4
04 23:55 SW 7 16.09 Overcast FEW018 BKN070 OVC080 14.4 10.6 78% 76.1 1015.5
04 22:55 Calm 16.09 Overcast OVC080 13.9 9.4 17.8 13.9 74% 76.12 1015.6
04 21:55 W 9 16.09 Overcast OVC075 14.4 9.4 72% 76.12 1015.7
04 20:55 W 15 16.09 Overcast FEW033 FEW065 OVC085 15 10 72% 76.12 1015.8
04 19:55 W 13 16.09 Overcast BKN018 BKN024 OVC080 15.6 11.1 75% 76.1 1015.3
04 18:55 W 20 16.09 Overcast FEW024 BKN034 OVC090 16.1 10 67% 76.1 1015.2
04 17:55 W 20 16.09 Overcast SCT025 OVC070 16.7 11.1 70% 76.12 1015.7
04 16:55 SW 20 G 39 16.09 Overcast SCT023 BKN028 OVC038 17.8 11.1 20 17.2 65% 76.1 1015.4
04 15:55 SW 19 16.09 Mostly Cloudy FEW027 SCT033 BKN090 18.3 11.1 63% 76.12 1015.5
04 14:55 SW 20 G 35 16.09 Overcast SCT028 OVC090 18.9 9.4 54% 76.17 1016.2
04 13:55 SW 26 16.09 Mostly Cloudy BKN090 18.3 10.6 61% 76.17 1016.4
04 12:55 SW 24 16.09 Mostly Cloudy BKN090 19.4 9.4 53% 76.17 1016.2
04 11:55 SW 22 G 35 16.09 A Few Clouds FEW085 18.9 8.3 50% 76.17 1016.4
04 10:55 W 20 G 30 16.09 Mostly Cloudy BKN085 18.3 7.8 18.3 11.7 51% 76.17 1016.5
04 09:55 W 15 16.09 Partly Cloudy SCT080 17.8 8.3 54% 76.17 1016.2
04 08:55 W 9 16.09 Fair CLR 16.7 8.9 60% 76.15 1016.0
04 07:55 E 6 16.09 Fair CLR 15 10.6 75% 76.12 1015.6
04 06:55 SE 7 16.09 Fair CLR 12.2 10 87% 76.12 1015.6
04 05:55 S 7 16.09 Fair CLR 11.7 9.4 86% 76.1 1015.3
04 04:55 S 6 16.09 Fair CLR 12.8 10 15.6 12.8 83% 76.1 1015.2
04 03:55 SW 7 16.09 Mostly Cloudy BKN065 13.3 10.6 84% 76.07 1015.0
04 02:55 SW 7 16.09 Fair CLR 13.9 11.1 83% 76.07 1014.9
04 01:55 W 19 16.09 Overcast OVC060 14.4 10.6 78% 76.1 1015.4
04 00:55 W 17 16.09 Overcast OVC050 15 10.6 75% 76.15 1015.9
03 23:55 S 6 16.09 Overcast OVC050 15 11.7 81% 76.15 1016.1
03 22:55 Calm 16.09 Overcast OVC060 15 11.1 18.3 15 78% 76.12 1015.6
03 21:55 W 7 16.09 Overcast SCT050 OVC065 15 10.6 75% 76.12 1015.8
03 20:55 W 11 16.09 Overcast OVC060 15 10.6 75% 76.07 1014.9
03 19:55 W 15 16.09 Overcast OVC060 15.6 10 70% 76.05 1014.6
03 18:55 W 17 16.09 Overcast OVC055 16.1 10.6 70% 76.02 1014.4
03 17:55 W 19 16.09 Light Rain OVC050 16.7 11.1 70% 76.02 1014.3
03 16:55 S 20 16.09 Overcast OVC050 18.3 8.9 18.9 16.1 54% 75.97 1013.5
03 15:55 SW 19 16.09 Overcast OVC050 18.3 9.4 56% 76 1013.9
03 14:55 Vrbl 11 16.09 Overcast OVC050 18.3 9.4 56% 76.05 1014.5
03 13:55 W 11 16.09 Overcast OVC047 17.2 8.9 58% 76.05 1014.7
03 12:55 W 11 16.09 Overcast OVC035 17.2 9.4 60% 76.07 1015.0
03 11:55 W 17 16.09 Overcast BKN025 OVC032 16.1 9.4 65% 76.1 1015.5
03 10:55 SW 6 16.09 Overcast FEW028 OVC037 16.7 10 17.2 14.4 65% 76.1 1015.3
03 09:55 S 6 16.09 Overcast SCT033 OVC041 16.7 10.6 67% 76.1 1015.2
03 08:55 SW 7 16.09 Overcast OVC037 15.6 10.6 72% 76.07 1015.0
03 07:55 S 6 16.09 Overcast OVC028 15 10.6 75% 76.02 1014.5
03 06:55 Calm 16.09 Overcast OVC027 15 11.1 78% 75.97 1013.8
03 05:55 S 6 16.09 Overcast FEW021 OVC029 14.4 11.7 84% 75.95 1013.3
03 04:55 Calm 16.09 Overcast FEW019 OVC027 14.4 11.1 15.6 14.4 81% 75.92 1013.1
03 03:55 Calm 16.09 Overcast BKN015 OVC028 14.4 11.7 84% 75.97 1013.7
03 02:55 Calm 16.09 Overcast OVC017 14.4 11.7 84% 75.95 1013.2
03 01:55 W 6 16.09 Overcast OVC016 15 11.7 81% 75.97 1013.8
03 00:55 W 11 16.09 Overcast OVC016 15 11.7 81% 76 1014.0
02 23:55 W 11 16.09 Overcast OVC015 15.6 11.7 78% 75.97 1013.5
02 22:55 W 7 16.09 Overcast OVC010 15 12.8 18.9 15 87% 75.95 1013.4
02 21:55 SW 9 16.09 Overcast OVC009 15 12.8 87% 75.95 1013.4
02 20:55 W 9 16.09 Overcast OVC010 15 12.8 87% 75.9 1012.5
02 19:55 W 11 16.09 Overcast OVC011 15.6 12.8 84% 75.82 1011.8
02 18:55 SW 15 14.48 Fair CLR 16.7 13.3 80% 75.79 1011.4
02 17:55 W 15 16.09 A Few Clouds FEW013 17.2 13.3 78% 75.79 1011.4
02 16:55 W 15 16.09 A Few Clouds FEW012 18.9 13.3 19.4 17.2 70% 75.82 1011.7
02 15:55 SW 13 16.09 Partly Cloudy SCT018 19.4 13.3 68% 75.87 1012.2
02 14:55 SW 19 G 35 16.09 Partly Cloudy SCT019 18.9 12.8 68% 75.97 1013.5
02 13:55 SW 17 16.09 Partly Cloudy SCT017 18.9 13.3 70% 76 1014.1
02 12:55 S 17 16.09 Mostly Cloudy BKN016 18.9 13.3 70% 76.02 1014.5
02 11:55 SW 13 16.09 Mostly Cloudy BKN016 18.3 13.9 76% 76.07 1015.1
02 10:55 SW 7 14.48 Overcast OVC012 17.2 13.3 17.2 14.4 78% 76.1 1015.5
02 09:55 Calm 12.87 Overcast OVC009 15.6 12.8 84% 76.12 1015.8
02 08:55 NW 6 12.87 Overcast OVC008 15 12.8 87% 76.12 1015.8
02 07:55 E 9 11.27 Overcast OVC007 14.4 12.2 87% 76.1 1015.3
02 06:55 E 9 9.66 Fog/Mist OVC009 15 12.8 87% 76.07 1015.0
02 05:55 N 6 11.27 Overcast OVC009 14.4 12.8 90% 76.05 1014.7
02 04:55 NE 6 9.66 Fog/Mist OVC009 14.4 12.8 14.4 12.8 90% 76.02 1014.4
Date Time (pdt) Wind (kph) Vis. (km) Weather Sky Cond. Air Dwpt Max. Min. Relative Humidity Wind Chill (°C) Heat Index (°C) altimeter (cm) sea level (mb) 1 hr 3 hr 6 hr
6 hour
Temperature (ºC) Pressure Precipitation (cm)